{"data":{"norad_id":45580,"epoch":"2026-09-20T05:18:09.529632Z","epoch_age_seconds":35244,"freshness":"FRESH","line1":"1 45580U 20025BB  26263.22094363  .00030318  00000+0  64921-3 0  9998","line2":"2 45580  53.1501 245.8681 0003299  67.6606 292.4750 15.44543675355407","mean_motion":15.44543675,"eccentricity":0.0003299,"inclination_deg":53.1501,"raan_deg":245.8681,"arg_perigee_deg":67.6606,"mean_anomaly_deg":292.475,"bstar":0.00064921,"rev_number":35540,"period_min":93.23141995321,"perigee_km":430.47232147455,"apogee_km":434.96612441044,"semimajor_km":6810.8562229425,"source":"CELESTRAK","updated_at":"2026-09-20T09:00:38.448469Z"}}